Regional Weather Roundup
Issued by NWS

Home | Current Version | Previous Version | Graphics & Text | Print | Product List | Glossary Off
Versions: 1 2 3 4 5 6 7 8 9 10 11 12 13 14 15 16 17 18 19 20 21 22 23 24 25 26 27 28 29 30 31 32 33 34 35 36 37 38 39 40 41 42 43 44 45 46 47 48 49 50

000
ASUS43 KDMX 010907
RWRIA

WEATHER ROUNDUP FOR IOWA
NATIONAL WEATHER SERVICE DES MOINES IA
400 AM CDT WED APR 01 2015

NOTE: "FAIR" INDICATES FEW OR NO CLOUDS BELOW 12,000 FEET WITH NO
SIGNIFICANT WEATHER AND/OR OBSTRUCTIONS TO VISIBILITY.

* - THESE STATIONS ARE NOT NWS STATIONS...THUS NOT UNDER NWS
QUALITY CONTROL.  THEY ALSO DO NOT REPORT WEATHER SUCH
AS PRECIPITATION OR FOG.

IAZ001>003-012>014-020>022-031>034-043>046-011000-
   NORTHWEST IOWA

CITY           SKY/WX    TMP DP  RH WIND       PRES   REMARKS
CARROLL *      CLOUDY    52  32  46 S15       29.81F
CHEROKEE *     CLEAR     54  32  43 S12       29.77F
DENISON *      PTCLDY    54  30  40 S15G25    29.79F
LE MARS *      CLEAR     55  32  41 S12       29.75F
ORANGE CITY *  CLEAR     50  30  46 S12       29.75F
SHELDON *      CLEAR     46  32  57 S13       29.74F
SIOUX CITY     PTCLDY    48  31  51 SE8       29.76F
SPENCER        CLEAR     48  33  56 S9        29.77F
STORM LAKE *   CLEAR     48  32  53 S13       29.79F
$$

IAZ055>058-069>071-079>083-090>094-011000-
   SOUTHWEST IOWA

CITY           SKY/WX    TMP DP  RH WIND       PRES   REMARKS
ATLANTIC *     CLOUDY    54  32  43 S14       29.84F
AUDUBON *      CLEAR     52  32  46 S8        29.84F
CLARINDA *     CLEAR     46  34  61 S8        29.88S
COUNCIL BLFS * PTCLDY    54  34  47 S12       29.84R
CRESTON *      CLEAR     50  34  53 S13       29.88R
HARLAN  *      CLEAR     52  32  46 S10       29.86S
LAMONI         CLEAR     51  33  50 S12       29.89F
RED OAK *      PTCLDY    54  34  47 S9        29.85S
SHENANDOAH *   CLEAR     55  32  41 S16       29.86S
$$

IAZ047>049-059>061-072>074-084-011000-
   CENTRAL IOWA

CITY           SKY/WX    TMP DP  RH WIND       PRES   REMARKS
AMES           CLEAR     49  33  54 SE6       29.84F
ANKENY *       CLEAR     52  34  50 S8        29.85F
CHARITON *     CLEAR     54  34  47 S15       29.88F
DES MOINES     CLEAR     53  33  46 S9        29.86F
GRINNELL*      CLEAR     48  32  53 S9        29.88F
KNOXVILLE *    CLEAR     54  32  43 S10       29.86F
MARSHALLTOWN   CLEAR     47  32  56 SE8       29.86F
PELLA *        CLEAR     50  37  62 S8        29.89S
PERRY *          N/A     45  34  65 S7        29.84S
$$

IAZ004>006-015-016-023>025-035-036-011000-
   NORTH CENTRAL IOWA

CITY           SKY/WX    TMP DP  RH WIND       PRES   REMARKS
ALGONA *       CLEAR     48  32  53 S9        29.80F
CLARION *      CLEAR     48  34  57 S13       29.82F
ESTHERVILLE    CLEAR     40  31  70 S10       29.77F WCI  33
FORT DODGE *   CLEAR     52  30  43 S10       29.82F
MASON CITY     CLEAR     41  32  70 SE9       29.85F
FOREST CITY *  CLEAR     43  34  70 SE8       29.82F
IOWA FALLS *     N/A     41  32  70 SE8       29.86F
$$

IAZ007>011-017>019-026>030-037>042-050>054-066-011000-
   NORTHEAST IOWA

CITY           SKY/WX    TMP DP  RH WIND       PRES   REMARKS
CEDAR RAPIDS   CLEAR     45  31  58 SE7       29.89F
CHARLES CITY * CLEAR     45  34  65 SE12      29.87F
CLINTON *      CLEAR     34  28  80 E7        29.96S WCI  28
DECORAH *      MOCLDY    45  32  61 SE7       29.89F
DUBUQUE        CLEAR     43  30  60 CALM      29.93S
MONTICELLO *   CLEAR     32  32 100 CALM      29.92F
OELWEIN *      CLEAR     43  32  65 SE12      29.90F
WATERLOO       CLEAR     37  31  78 SE6       29.88F WCI  32
$$

IAZ064-065-067-068-078-011000-
   EAST CENTRAL IOWA

CITY           SKY/WX    TMP DP  RH WIND       PRES   REMARKS
DAVENPORT      CLEAR     40  28  62 SE7       29.94S
IOWA CITY      CLEAR     39  31  72 CALM      29.92F
MT. PLEASANT * CLEAR     46  32  57 S6        29.92F
MUSCATINE *    CLEAR     37  32  81 CALM      29.92F
QUAD CITIES    CLEAR     37  30  75 CALM      29.93S
$$

IAZ062-063-075>077-085>089-095>099-011000-
   SOUTHEAST IOWA

CITY           SKY/WX    TMP DP  RH WIND       PRES   REMARKS
BURLINGTON     CLEAR     47  32  56 S8        29.92F
FAIRFIELD *    CLEAR     50  32  50 S9        29.90F
FORT MADISON * CLEAR     52  34  50 S7        29.93F
KEOKUK *       PTCLDY    54  32  43 S5        29.92F
OSKALOOSA *      N/A     41  32  70 S10       29.89F
CENTERVILLE *  CLEAR     46  34  61 S9        29.91F
OTTUMWA        CLEAR     47  33  58 S10       29.89F
WASHINGTON *   CLEAR     46  34  61 S9        29.90F
$$

ABBREVIATIONS USED IN REMARKS
   TC - TEMPERATURES IN CELSIUS
  WCI - WIND CHILL INDEX
   HX - HEAT INDEX
  VSB - VISIBILITY
$$



USA.gov is the U.S. government's official web portal to all federal, state and local government web resources and services.